Skip Page Navigation
NASA JPL Caltech
NASA Logo - Jet Propulsion Laboratory + View the NASA Portal
+ Center for Near-Earth Object Studies
JPL Home Earth Solar System Stars & Galaxies Technology
JPL Solar System Dynamics
BODIES ORBITS EPHEMERIDES TOOLS PHYSICAL DATA DISCOVERY FAQ SITE MAP
IMPORTANT: The SSD Announcement email list is now available. Major changes are coming in the near future, including possible hostname and/or URL changes. To be notified of such changes, subscribe to this email list.

Please visit this page for more details.


JPL Small-Body Database Browser
Search: [ help ]  
117266 (2004 TO7)
Classification: Main-belt Asteroid          SPK-ID: 2117266
Ephemeris | Orbit Diagram | Orbital Elements | Mission Design | Physical Parameters | Discovery Circumstances ]

[ show orbit diagram ]
Orbital Elements at Epoch 2458600.5 (2019-Apr-27.0) TDB
Reference: JPL 18 (heliocentric ecliptic J2000)
 Element Value Uncertainty (1-sigma)   Units 
e .1441518170663856 5.5505e-08  
a 2.74768712483393 2.7454e-08 au
q 2.351603033059206 1.4614e-07 au
i 12.14208943557617 5.9747e-06 deg
node 88.551167644 3.0317e-05 deg
peri 244.491890634002 4.0481e-05 deg
M 101.7681147017253 3.1479e-05 deg
tp 2458130.217765241059
(2018-Jan-11.71776524)
0.00014262 TDB
period 1663.60165961047
4.55
2.4933e-05
6.826e-08
d
yr
n .2163979567586471 3.2433e-09 deg/d
Q 3.143771216608653 3.1411e-08 au
  Orbit Determination Parameters
   # obs. used (total)      569  
   data-arc span      7150 days (19.58 yr)  
   first obs. used      1999-07-14  
   last obs. used      2019-02-09  
   planetary ephem.      DE431  
   SB-pert. ephem.      SB431-N16  
   condition code      0  
   norm. resid. RMS      .57196  
   source      ORB  
   producer      Otto Matic  
   solution date      2019-Jul-13 19:09:58  

Additional Information
 Earth MOID = 1.36892 au 
 Jupiter MOID = 2.23148 au 
 T_jup = 3.300 
[ show covariance matrix ]

Ephemeris | Orbit Diagram | Orbital Elements | Mission Design | Physical Parameters | Discovery Circumstances ]

Physical Parameter Table
Parameter Symbol Value Units Sigma Reference Notes
absolute magnitude H 15.1   n/a MPO333736  

117266 (2004 TO7)          Discovered 2004-Oct-05 by LINEAR at Socorro
Reference: 20051019/Numbers.arcLast Updated: 2005-10-26
Ephemeris | Orbit Diagram | Orbital Elements | Mission Design | Physical Parameters | Discovery Circumstances ]
ABOUT SSD CREDITS/AWARDS PRIVACY/COPYRIGHT GLOSSARY LINKS
FirstGov 2019-Dec-11 17:18 UT
(server date/time)  
NASA Home Page
Site Manager:   Ryan S. Park
Webmaster  Alan B. Chamberlin